Vorticity
7 7 7 7 6 6 6 6 6 6 6 6 6 6 6 6 7 7 6 6 6 6 5 5 6 6 7 7 7 7 6 6 5 5 5 6 7 7 7 7 6 5 3 2 0 -1 -1 1 1 1 2 6 8 10 8 6 6 6 7 2 1 3 8 10 9 8 8 8 8 8 8 8 8 8 8 8 8 7 7 7 6 4 4 4 5 6 5 3 2 1 2 3 5 5 6 6 6 7 8 8 8 7 7
7 7 7 7 7 7 7 7 7 7 7 7 7 6 6 7 7 7 7 7 7 6 6 5 5 6 6 7 7 7 7 6 6 6 5 6 6 7 7 7 6 5 4 4 2 0 -1 -0 -0 0 0 2 6 9 10 8 7 6 7 5 2 1 3 7 8 8 7 8 8 8 8 8 8 9 9 9 9 8 7 7 6 5 4 4 5 5 5 4 2 1 1 2 3 4 5 5 6 7 8 8 8 7 7
9 8 8 8 8 8 8 8 8 8 8 7 7 7 7 7 7 7 7 7 7 7 7 6 6 6 6 6 6 7 7 7 6 6 6 6 6 7 7 7 7 6 5 5 4 2 1 -0 -0 -1 -1 0 3 6 9 9 8 7 7 6 5 3 2 4 6 6 7 7 8 8 9 9 9 9 10 10 10 9 8 7 7 6 5 4 4 5 7 5 3 2 1 1 2 3 4 5 6 6 7 7 7 7 7
10 10 10 10 9 9 9 9 9 9 9 9 8 8 8 7 7 7 7 7 7 7 7 7 7 6 6 6 6 6 6 7 7 6 6 6 6 7 7 7 7 7 6 6 5 4 2 1 0 -0 -1 -1 0 3 7 9 9 8 7 7 6 5 4 4 5 5 6 6 7 8 9 9 9 9 9 10 11 10 8 7 7 7 7 4 4 5 7 8 6 3 1 0 1 2 3 4 6 7 8 8 7 7 7
12 11 11 11 11 11 10 10 10 10 10 10 10 9 9 9 8 8 8 7 7 7 7 7 7 7 7 6 6 6 6 6 7 7 7 7 6 6 7 7 7 7 7 6 6 5 4 3 2 1 -0 -1 -1 1 4 8 9 9 7 7 6 6 5 5 5 5 5 6 6 7 8 9 9 9 8 9 11 11 9 8 8 8 7 5 3 3 5 8 9 7 3 1 0 0 2 3 5 7 8 8 8 8 7
14 13 13 13 13 12 12 11 11 11 11 11 11 10 10 10 10 10 9 9 8 7 7 7 7 7 7 7 6 6 6 6 7 7 7 7 7 6 6 6 7 8 8 7 6 5 4 4 3 2 1 -0 -1 -1 0 5 8 10 9 7 6 6 6 6 5 5 5 5 6 6 7 8 9 9 8 8 9 10 10 7 7 8 7 5 5 4 4 6 9 10 8 4 1 0 1 2 4 6 7 7 8 8 7
16 15 14 14 14 14 13 13 13 12 12 12 11 11 11 11 11 11 11 10 9 9 8 8 7 7 7 7 7 7 7 6 7 7 8 7 7 6 6 6 7 7 8 8 7 6 5 4 4 3 3 1 -0 -2 -2 1 5 9 10 8 7 6 6 6 5 5 5 5 5 5 5 8 9 8 6 8 9 9 8 7 7 7 7 5 5 5 5 5 6 8 10 8 5 2 1 1 3 4 5 5 6 7 7
17 16 15 15 14 14 14 14 13 13 13 13 12 12 11 12 12 12 12 11 11 10 10 9 8 8 7 7 7 7 7 7 7 7 7 7 7 7 7 6 6 7 8 8 8 8 7 5 5 4 4 3 1 -0 -2 -2 1 5 9 8 7 7 7 6 6 5 4 5 5 5 5 7 8 8 7 8 8 9 9 7 6 6 7 6 5 5 5 5 6 7 8 9 8 5 2 3 3 3 4 4 4 5 6
15 15 15 15 14 14 13 13 13 13 13 13 13 13 12 12 12 12 12 12 12 12 11 11 10 9 9 8 8 7 7 7 7 7 7 7 7 7 7 7 6 6 7 8 8 9 8 7 6 5 4 4 3 1 -1 -2 -1 2 6 8 8 7 7 6 6 5 4 4 4 5 5 5 7 8 7 7 8 9 9 8 6 6 7 6 5 5 4 5 6 7 7 9 9 8 3 3 3 3 4 3 4 4 6
13 13 13 14 14 14 13 13 12 12 12 12 13 13 13 13 12 12 12 12 12 12 12 12 12 11 10 10 9 8 7 7 7 7 7 7 7 7 7 7 7 6 6 7 8 9 9 8 7 6 5 4 4 3 2 -0 -1 -0 3 7 8 8 7 7 6 5 4 4 4 4 4 4 5 8 8 7 7 9 9 9 7 6 7 7 6 4 4 5 6 6 6 7 9 10 8 3 1 2 5 5 4 4 5
11 11 11 12 12 12 13 13 12 12 11 11 11 12 12 13 13 13 13 12 12 12 12 12 12 12 12 11 11 10 9 8 7 7 7 7 7 7 7 7 7 7 6 7 7 8 9 9 8 7 6 5 5 4 4 2 0 -1 1 4 7 8 8 8 8 8 6 4 4 4 4 2 4 7 9 8 7 8 9 10 8 6 5 7 6 5 3 3 5 6 6 6 7 8 9 7 5 4 4 5 5 4 4
9 9 10 10 11 11 12 12 12 12 11 11 10 10 10 11 12 13 13 13 12 12 11 12 12 13 13 13 13 12 11 9 8 7 7 7 7 7 7 7 7 7 6 6 7 7 9 9 9 8 7 6 5 5 5 4 2 1 -0 2 5 6 7 7 8 9 9 6 4 3 3 2 2 5 9 9 8 8 9 9 9 8 6 7 7 5 4 3 4 5 6 6 6 6 7 8 8 6 5 5 5 5 4
8 8 8 9 9 10 10 11 11 12 12 11 11 10 9 9 10 11 12 13 13 13 12 12 12 12 13 13 14 14 13 12 10 9 7 7 7 7 7 7 7 7 7 6 6 7 8 8 9 9 8 7 6 5 5 5 4 2 0 1 3 5 5 6 6 7 9 9 7 4 3 3 2 3 5 8 9 8 8 9 9 9 8 9 9 7 5 3 3 5 6 6 6 6 6 7 7 7 5 3 3 3 4
8 8 8 8 8 9 9 10 10 11 12 12 11 11 10 9 9 9 10 11 12 13 13 13 12 12 12 12 13 14 15 14 13 11 9 8 7 7 7 7 7 7 7 7 6 6 7 8 8 9 9 8 7 6 5 5 5 4 2 1 1 3 5 5 5 5 6 8 8 7 5 4 3 3 3 6 7 8 8 9 9 9 8 8 9 10 8 4 3 4 6 6 6 6 7 7 6 6 5 4 3 2 2
9 9 9 9 9 9 9 9 9 10 11 11 12 12 11 11 10 9 9 9 10 12 13 13 13 12 12 12 12 13 15 16 16 14 12 10 8 7 7 7 7 7 7 7 7 6 6 7 8 8 9 8 8 7 6 6 5 5 4 2 1 1 3 5 6 6 5 6 7 9 8 5 4 4 3 4 5 6 8 8 9 9 8 7 8 9 10 7 5 4 5 6 6 6 7 7 6 5 5 6 5 4 2
10 10 10 10 10 9 9 9 9 9 10 10 11 12 12 12 11 11 9 9 9 9 11 12 13 13 13 12 12 12 12 14 16 17 16 13 11 9 7 7 7 7 7 7 7 7 7 7 7 8 9 9 8 8 7 6 6 5 5 3 2 1 1 3 4 5 6 6 6 7 9 7 6 4 4 4 3 4 7 8 9 9 8 7 7 8 9 9 7 4 4 5 6 6 6 7 7 6 5 6 6 6 3
12 12 12 12 12 11 11 11 10 10 10 10 11 11 12 13 13 12 11 10 9 9 9 10 12 13 14 14 13 12 11 12 14 16 18 17 15 12 9 8 7 7 7 7 7 7 7 7 7 8 8 8 8 8 7 6 6 5 6 5 3 2 1 1 2 4 5 6 6 6 7 8 7 5 4 3 2 3 6 8 9 9 8 7 7 7 8 9 8 6 4 5 6 6 5 6 7 7 5 5 7 8 6
14 14 14 14 14 14 13 13 12 12 11 11 11 11 12 13 13 13 13 12 11 10 9 9 10 11 13 14 14 13 12 11 12 13 16 18 18 16 13 10 8 8 7 8 7 7 7 7 7 7 8 8 8 8 8 7 6 6 6 6 5 4 2 1 1 2 4 6 6 6 5 6 7 6 4 4 2 1 3 6 8 9 8 8 8 8 9 9 9 8 6 5 5 5 5 5 6 7 6 5 6 8 9
16 16 16 16 16 16 15 15 15 14 14 13 12 12 12 12 13 14 14 13 13 12 11 10 9 9 11 13 14 14 13 12 11 11 13 16 18 19 17 14 11 9 8 8 8 8 7 7 7 7 7 8 8 8 8 8 7 6 6 6 6 5 4 2 1 1 2 5 6 6 5 6 6 6 4 5 3 2 1 4 6 8 8 8 8 9 9 9 10 10 9 8 7 6 5 5 6 7 7 6 6 7 8
17 16 16 16 16 16 16 16 16 16 15 15 15 14 13 13 13 14 14 14 14 14 13 12 11 10 9 11 13 14 15 13 12 11 11 13 16 18 20 18 15 12 10 9 8 8 8 7 7 7 7 8 8 8 8 8 7 7 6 6 6 6 5 4 2 2 2 3 5 6 6 6 6 6 3 5 4 3 1 2 4 6 7 7 8 9 9 9 9 10 10 10 9 7 6 6 7 7 7 7 7 7 8
15 15 16 16 16 16 16 16 16 16 16 17 17 16 15 14 14 14 14 15 15 15 14 14 13 11 10 10 12 13 15 15 14 13 11 12 13 15 19 20 19 16 13 11 9 9 9 8 7 7 7 8 8 8 8 8 8 7 7 7 6 6 6 5 4 3 2 3 4 6 6 7 7 6 4 4 4 4 3 3 4 6 7 7 7 8 9 9 9 9 10 11 10 8 7 7 7 7 7 7 8 9 9
13 14 14 14 15 15 15 16 16 16 16 17 18 18 17 17 16 15 14 15 15 15 15 14 13 13 12 11 11 12 14 15 15 14 12 12 12 14 16 19 20 20 17 14 11 10 9 9 8 8 7 8 8 8 9 8 8 7 7 7 7 6 6 6 5 4 2 2 3 5 7 7 7 7 6 4 3 3 4 3 4 5 7 7 7 8 9 9 9 9 10 11 11 10 9 8 8 8 8 8 8 9 11
12 12 12 13 13 14 14 15 15 15 15 16 18 18 18 19 19 18 16 16 16 17 17 16 15 14 12 11 11 11 12 14 14 14 13 12 12 12 14 17 20 21 21 18 15 12 11 10 9 8 7 7 8 9 9 9 8 8 7 7 7 7 6 6 6 5 4 3 3 4 6 7 7 7 6 5 3 2 3 4 4 4 6 6 7 8 9 9 8 8 9 10 11 11 10 9 8 8 8 7 7 8 10
10 11 10 11 12 12 12 13 14 14 14 15 16 17 16 18 19 20 19 19 18 18 18 19 18 17 15 13 12 11 11 13 14 14 14 13 12 11 12 14 17 20 23 21 19 16 13 11 11 10 8 7 7 8 9 9 9 8 8 7 7 7 7 7 7 6 5 4 3 4 5 7 7 7 6 5 4 3 2 3 5 6 5 6 7 8 9 9 8 8 8 9 10 11 10 10 9 8 8 7 6 6 6
9 9 9 10 11 11 11 12 12 12 12 13 14 15 14 15 17 18 19 20 20 20 19 21 21 21 20 17 14 12 11 12 13 14 15 14 13 12 11 12 14 17 21 23 22 20 16 14 12 11 10 8 7 8 9 9 9 9 9 8 8 7 7 7 7 7 6 5 4 4 4 6 7 7 6 5 4 3 2 2 4 6 7 6 6 7 9 9 9 8 7 7 9 10 11 10 10 9 8 8 7 7 5
8 9 9 9 9 10 9 10 11 11 11 11 12 13 13 13 14 15 16 17 19 20 20 20 21 23 24 22 19 15 12 12 12 13 15 15 14 13 12 11 12 14 17 21 23 23 21 17 14 12 11 9 8 7 7 9 9 10 10 9 8 7 7 7 7 7 7 6 5 4 4 5 6 7 6 5 4 4 3 1 2 4 5 6 6 7 8 8 9 8 7 6 7 9 11 11 10 9 8 8 8 8 7
8 8 8 8 9 9 9 9 9 10 10 10 11 11 12 12 12 13 13 14 15 17 18 18 20 21 24 25 24 21 17 14 12 12 14 15 15 14 13 12 12 12 14 17 21 23 23 20 17 14 12 11 9 8 7 7 9 10 11 10 9 8 7 7 7 8 8 7 6 4 3 4 5 6 6 5 5 4 4 2 2 3 5 5 5 6 6 8 9 8 8 6 5 6 9 10 10 9 7 8 8 7 7
8 8 8 8 8 8 9 8 9 9 9 9 9 10 10 11 11 11 11 12 13 14 16 16 17 18 20 23 25 25 23 18 15 13 13 15 15 15 14 13 13 12 13 15 18 21 23 23 20 17 14 12 10 9 7 6 8 9 11 11 10 9 8 8 8 8 8 7 6 5 4 3 4 5 6 5 5 5 4 4 3 3 5 6 6 6 5 7 8 9 9 7 5 4 6 9 10 9 7 7 6 6 6
7 7 7 7 8 8 8 8 8 8 8 9 9 9 8 9 10 10 10 11 11 12 13 13 14 16 18 20 23 25 26 24 20 16 13 14 15 16 15 14 13 12 12 13 15 18 21 23 22 20 17 14 12 10 8 6 6 8 10 11 11 10 9 8 8 8 8 8 7 6 4 4 4 4 5 5 5 5 5 5 4 3 2 5 7 8 7 7 7 8 9 8 6 5 4 6 9 10 8 7 5 4 4
7 7 7 7 7 7 8 8 8 8 8 9 9 9 8 8 9 9 9 10 10 11 11 12 13 14 15 16 19 22 25 26 25 21 16 16 16 17 16 15 14 13 12 12 13 16 18 21 22 22 20 16 14 11 9 7 6 6 9 11 12 11 10 9 9 9 10 9 8 7 5 5 4 4 4 5 5 6 6 6 5 3 0 1 4 7 10 9 9 9 9 9 8 6 4 4 6 9 10 8 6 5 3
8 8 8 8 8 8 8 8 8 8 8 8 9 9 8 8 8 8 8 9 10 10 10 11 11 12 12 13 15 17 20 25 26 25 20 18 18 18 18 17 16 14 13 12 13 14 16 18 21 22 21 19 16 13 11 9 6 5 7 10 12 13 11 10 11 11 12 11 9 7 7 6 5 4 4 5 5 6 6 6 6 4 1 -0 0 3 8 10 11 11 10 9 8 8 6 5 5 6 9 8 8 7 5
8 9 9 9 9 9 8 8 8 8 8 8 8 8 8 8 8 8 8 9 9 10 10 10 10 11 11 12 13 14 16 21 24 25 22 20 19 19 19 19 18 16 14 13 12 12 14 16 19 21 22 20 18 16 13 11 8 6 5 8 11 13 13 12 11 11 14 13 10 8 7 7 7 6 5 5 5 6 6 6 7 6 4 1 -1 -0 4 9 12 13 13 12 10 9 7 6 5 5 6 7 8 8 7
9 9 9 9 9 9 9 9 9 9 8 8 8 8 8 8 8 8 8 8 8 9 9 10 10 11 11 11 11 11 13 17 20 23 23 22 21 20 19 20 20 18 16 14 12 12 13 14 17 19 21 21 20 18 15 13 10 7 5 6 9 12 15 14 10 8 11 15 13 9 7 7 7 7 6 6 5 6 6 6 7 7 6 3 -0 -1 1 6 10 12 13 13 12 11 9 8 6 5 6 6 7 7 8
9 10 10 10 10 10 10 10 10 9 9 9 8 8 8 8 8 8 8 8 8 8 8 9 9 10 10 10 10 10 11 13 16 19 22 22 21 20 20 21 22 21 19 16 14 13 12 13 15 17 20 21 20 19 17 15 12 9 6 5 7 10 14 16 12 7 6 13 16 14 8 7 7 8 7 6 6 5 5 5 6 7 7 4 1 -2 -1 3 7 10 12 13 13 12 11 10 7 5 5 6 6 6 6
10 10 10 10 10 10 10 10 10 10 10 9 9 9 8 8 8 8 8 8 8 8 8 8 8 8 8 9 10 10 10 11 12 15 18 20 20 20 22 22 23 23 22 20 17 15 13 13 14 16 18 20 20 20 19 17 15 12 9 6 5 7 12 16 14 8 1 5 12 16 14 9 7 8 8 7 6 5 5 5 6 7 8 6 2 -1 -3 -0 2 6 10 12 12 12 11 10 9 7 6 6 6 6 6
10 10 10 10 10 10 10 10 10 10 10 9 9 9 9 9 8 8 8 8 8 7 7 7 7 7 7 8 9 9 9 9 10 11 13 16 17 19 21 21 22 24 26 23 20 17 15 14 14 15 16 18 20 20 20 19 17 15 11 7 5 5 9 15 16 13 3 1 6 13 18 13 9 7 8 8 7 6 5 5 5 6 7 7 4 1 -3 -3 -1 2 6 11 13 13 12 12 11 10 8 7 7 6 5
9 9 10 10 10 10 10 10 10 10 9 9 9 9 9 9 9 8 8 8 8 8 7 7 7 7 7 7 8 8 8 8 9 10 10 12 14 16 19 19 20 23 26 25 23 21 18 16 14 14 15 17 19 20 20 20 19 17 14 10 7 5 6 12 16 16 9 2 3 9 19 16 11 7 7 8 8 6 5 4 5 5 7 7 6 3 -2 -4 -3 -1 3 7 11 14 17 19 18 14 10 9 9 8 5
9 9 9 9 9 9 9 9 9 9 9 9 9 9 9 9 9 9 8 8 8 8 8 7 7 7 7 7 7 7 7 8 9 9 9 10 12 13 15 15 17 20 24 24 25 25 22 18 16 15 15 16 18 19 20 20 20 19 17 13 9 6 5 9 14 16 13 4 -0 3 16 17 13 8 7 8 8 7 6 5 4 5 6 7 7 5 1 -3 -4 -3 0 1 3 9 22 36 35 27 16 12 11 10 8
9 9 9 9 9 9 9 9 9 9 9 9 9 9 9 9 9 9 9 8 8 8 8 8 7 7 7 6 6 6 6 7 8 8 8 9 10 11 12 13 15 17 19 21 24 27 26 21 18 17 16 15 17 18 20 21 21 21 19 16 12 8 5 7 11 15 16 6 -2 -1 12 17 15 10 7 8 9 8 7 6 5 5 6 7 7 6 4 -1 -3 -3 -1 -3 -7 -4 17 45 53 46 26 16 12 12 11
9 9 9 9 10 10 10 10 10 10 10 10 10 10 10 9 9 9 9 9 9 8 8 8 8 8 7 7 6 6 6 6 7 7 7 8 9 10 10 12 14 15 16 18 22 26 26 24 22 20 17 15 16 17 19 21 21 22 21 19 15 11 6 6 9 14 18 9 -1 -5 6 16 16 13 9 9 9 9 9 8 7 6 6 7 8 8 6 2 -1 -3 -1 -4 -13 -14 5 34 50 53 40 24 15 13 13
10 10 10 10 10 10 11 11 11 11 11 11 11 11 11 10 10 10 10 10 9 9 9 9 9 8 8 7 7 7 6 6 6 7 7 7 8 9 9 11 12 13 13 15 19 23 25 25 24 22 19 17 16 16 17 19 21 22 23 21 18 14 9 7 8 12 18 13 2 -7 -3 10 15 14 11 11 10 10 10 10 9 8 7 8 8 9 8 5 1 -1 -1 -2 -12 -17 -5 20 35 42 48 38 25 15 12
11 11 11 11 11 11 12 12 12 12 12 12 12 12 12 12 12 12 11 11 11 10 10 10 9 9 9 9 8 7 7 6 6 6 7 7 7 8 8 9 10 11 11 13 15 19 22 25 26 24 22 20 18 16 16 18 20 22 23 23 20 17 13 9 7 9 15 17 7 -4 -9 4 11 14 13 12 11 11 11 11 10 9 8 8 9 10 9 7 4 1 -0 -0 -9 -17 -16 9 23 32 41 52 42 25 13
12 12 12 12 12 12 13 13 13 13 13 13 13 13 13 13 13 13 13 13 12 12 11 11 11 10 10 10 9 9 8 7 7 7 7 7 7 7 7 8 9 10 9 11 12 15 18 23 25 26 24 22 20 17 15 16 18 21 23 23 22 20 16 12 9 8 12 17 12 3 -8 0 7 11 12 11 11 10 11 11 11 9 8 8 9 10 10 9 6 2 0 0 -5 -14 -23 -9 7 22 29 52 52 38 19
12 13 13 13 13 13 13 13 13 13 13 13 14 14 14 14 14 14 14 14 14 14 13 13 12 12 12 11 11 10 10 9 8 8 7 7 7 7 7 8 8 9 9 10 10 12 15 20 23 25 26 24 22 19 16 16 17 19 22 23 23 22 19 15 11 9 9 15 15 10 -2 -1 4 8 10 9 9 9 9 11 11 10 8 8 9 10 11 10 7 4 0 1 -2 -8 -18 -22 -15 -2 13 34 46 46 30
13 13 13 13 13 13 13 13 13 13 13 13 14 14 14 14 14 14 14 15 15 15 14 14 14 13 13 13 12 12 11 11 10 10 9 8 8 8 8 8 8 9 9 9 9 10 12 16 20 24 26 25 23 20 17 16 16 17 20 23 24 23 21 18 14 11 9 12 15 15 7 1 2 5 9 9 8 7 7 9 10 9 8 8 9 10 11 11 9 5 1 0 -2 -5 -10 -19 -23 -21 -11 4 23 39 45
13 13 13 12 12 12 12 12 12 12 13 13 13 13 13 14 14 14 14 14 14 15 15 15 15 14 14 14 14 13 13 13 12 12 11 10 9 9 8 8 8 9 9 8 8 8 10 13 17 20 24 25 24 22 20 18 17 16 17 20 23 24 23 21 17 14 11 11 14 17 15 7 3 2 6 9 10 9 8 9 9 9 8 9 10 11 11 11 10 7 2 0 -2 -5 -9 -12 -17 -20 -19 -18 -8 11 38
13 13 12 12 12 11 11 11 12 12 12 12 12 12 13 13 13 13 13 14 14 14 14 15 15 15 14 14 14 14 14 14 14 13 13 11 10 10 9 9 9 9 9 8 8 7 8 11 14 17 20 23 24 23 23 21 18 16 15 17 20 23 24 23 20 17 14 12 13 16 18 13 5 -0 0 7 12 15 13 11 10 10 9 11 12 12 11 11 10 8 3 1 -1 -4 -8 -10 -12 -13 -11 -15 -20 -16 7
12 12 12 11 11 11 11 11 11 11 11 11 12 12 12 12 12 12 13 13 13 13 14 14 14 15 14 14 14 14 14 14 14 14 14 13 12 10 10 10 10 9 9 9 8 8 8 10 12 14 17 20 22 23 24 23 20 17 15 15 18 21 24 24 22 19 16 15 15 15 17 15 8 1 -5 2 10 16 17 14 11 9 10 12 13 13 12 11 11 9 6 4 1 -2 -6 -8 -9 -9 -5 -4 -13 -20 -17
11 11 11 10 10 10 10 10 10 11 11 11 11 11 11 11 11 11 12 12 12 12 13 13 13 14 14 14 14 13 14 14 14 14 15 15 14 12 10 10 10 11 11 10 9 8 8 8 10 12 14 17 20 22 24 24 22 19 16 15 16 18 21 22 23 22 18 17 17 16 17 16 11 3 -6 -3 5 12 15 13 9 8 12 14 15 14 12 12 12 11 8 6 3 1 -1 -4 -5 -6 -3 0 -3 -10 -19
10 10 10 10 10 10 10 10 10 10 10 10 10 11 11 11 11 11 11 11 11 12 12 12 12 13 13 14 14 13 13 14 14 14 15 15 15 15 15 11 10 10 11 10 10 9 8 7 7 9 11 14 18 21 23 24 23 21 18 16 15 15 17 20 22 23 22 20 18 17 17 18 13 6 -5 -8 -2 6 9 8 7 8 14 19 20 18 13 13 13 13 10 8 5 3 0 -1 -2 -2 -2 2 3 -1 -12
10 9 9 9 9 9 10 10 10 10 10 10 10 10 10 10 10 11 10 11 11 11 11 11 11 11 12 13 13 13 13 13 14 14 15 15 15 15 17 16 14 11 9 9 9 9 8 8 8 9 11 14 17 19 22 23 23 22 20 18 16 14 14 17 20 23 24 23 21 19 18 19 15 8 -3 -9 -5 2 6 5 5 5 7 13 18 21 19 18 18 17 15 11 8 4 0 0 1 1 -0 2 5 4 -4
9 9 8 8 9 9 9 9 10 10 10 10 10 10 10 10 10 10 10 10 10 11 11 11 11 11 11 11 12 13 13 13 14 14 14 15 15 14 14 17 17 17 15 13 10 9 11 11 10 10 12 15 18 20 21 22 22 22 21 19 17 14 14 15 18 21 24 24 24 23 21 20 17 11 1 -3 -2 3 10 7 2 -1 1 4 9 16 23 24 25 24 21 17 12 8 3 1 2 3 3 3 6 6 1
9 8 8 8 8 9 9 9 9 10 10 10 10 10 9 9 9 10 10 10 10 10 10 11 11 12 11 11 11 11 12 12 13 14 14 14 15 15 14 14 15 17 18 21 19 14 8 9 9 7 7 12 16 20 22 22 22 21 21 20 18 16 14 14 16 18 21 23 24 25 24 22 19 14 7 6 6 7 9 5 -1 -6 -9 -4 2 9 19 24 26 26 27 24 19 13 7 4 4 4 4 5 6 7 4
8 8 8 8 8 8 9 9 9 9 9 9 9 9 9 9 9 9 9 9 10 10 10 10 11 12 12 12 11 10 11 11 11 12 14 14 15 15 17 14 13 13 15 17 20 19 12 9 7 6 1 5 10 15 19 20 21 21 21 20 19 17 16 15 15 15 17 19 22 25 26 24 21 18 14 18 18 13 5 0 -5 -10 -14 -12 -3 6 14 19 19 19 19 24 24 21 15 9 7 6 5 6 7 7 6
8 8 8 8 8 8 8 8 8 8 9 9 9 9 9 9 9 9 9 9 9 9 9 10 10 11 12 12 12 11 10 10 10 11 12 13 14 14 14 15 14 14 14 13 15 18 22 18 17 13 6 4 7 13 18 20 21 21 20 20 20 19 18 16 14 14 14 17 20 23 24 23 22 21 23 29 25 17 6 4 3 -1 -11 -13 -6 5 13 16 15 13 12 16 22 25 23 15 9 7 6 6 7 7 5
8 8 8 7 7 7 7 8 8 8 8 8 8 8 9 9 9 9 8 9 9 9 9 9 9 10 10 11 12 11 10 10 10 10 10 12 13 14 13 14 15 17 18 15 13 13 17 22 24 20 7 5 6 10 15 20 21 21 21 20 20 20 19 17 15 14 14 15 18 20 21 19 19 21 27 31 23 10 3 9 12 8 -8 -18 -10 6 20 19 18 16 14 11 15 20 25 17 11 7 5 6 7 7 6
9 8 8 7 7 7 7 7 7 7 8 8 8 8 8 8 8 8 8 8 8 8 8 8 9 9 9 10 11 11 11 10 10 10 11 10 11 12 14 14 14 13 13 13 14 14 13 16 21 21 13 2 0 4 12 17 20 21 21 20 20 20 20 18 16 14 13 14 16 18 19 17 16 18 26 30 21 10 4 13 18 14 -3 -23 -20 -3 22 20 20 21 24 14 11 13 18 15 10 6 4 6 7 7 6
9 8 8 8 7 7 7 7 7 7 7 7 7 8 8 8 8 8 8 8 8 8 8 8 8 9 9 9 10 10 11 11 10 10 10 10 10 11 12 13 13 13 13 12 13 14 17 16 15 18 30 17 4 -1 9 16 20 22 23 22 21 20 20 19 17 15 13 13 15 17 18 17 15 16 23 28 23 14 9 16 21 18 3 -20 -23 -10 17 15 13 17 33 24 17 13 13 12 8 4 2 5 6 6 6
10 9 8 8 8 8 8 8 8 8 8 8 8 8 8 8 8 8 8 8 8 8 8 8 8 8 9 8 9 9 10 10 10 10 9 9 10 11 10 10 11 12 13 13 13 13 14 15 14 17 28 30 17 2 1 11 19 24 26 24 22 21 20 20 19 17 15 14 14 15 17 18 16 15 18 26 25 19 13 16 22 21 5 -16 -21 -12 10 9 1 2 27 36 32 25 24 17 9 3 2 4 5 6 4
10 10 10 9 9 9 9 9 9 9 9 8 8 9 8 8 8 8 8 8 8 8 8 8 8 8 8 8 8 9 9 9 9 10 10 9 9 9 9 9 10 11 12 12 13 13 13 13 14 16 19 24 24 19 3 2 9 19 27 25 23 21 20 20 20 19 17 16 15 15 16 18 18 17 17 22 23 22 17 18 25 26 11 -9 -16 -11 4 6 -6 -12 4 30 38 39 45 39 25 11 4 4 5 6 4
12 12 11 11 11 10 11 11 10 10 10 10 10 10 9 9 9 9 9 9 9 9 9 9 9 9 9 9 9 9 9 9 9 9 10 9 9 8 8 9 10 11 12 13 13 13 14 14 14 14 14 16 22 26 19 5 1 6 18 23 23 21 19 19 19 18 18 17 15 15 15 18 19 20 20 21 21 20 17 19 27 32 23 1 -11 -12 -3 3 -5 -16 -19 2 20 33 42 53 48 33 16 9 6 6 4
Height
3136 3135 3135 3134 3134 3133 3133 3132 3132 3131 3131 3131 3131 3130 3130 3129 3129 3129 3129 3129 3129 3129 3130 3130 3130 3130 3131 3131 3131 3131 3132 3132 3132 3132 3132 3133 3133 3133 3133 3134 3134 3134 3134 3135 3136 3136 3136 3136 3136 3136 3136 3137 3137 3138 3138 3139 3140 3140 3141 3141 3142 3142 3142 3143 3144 3145 3146 3146 3147 3147 3148 3149 3150 3150 3151 3151 3152 3152 3153 3154 3155 3156 3156 3157 3158 3159 3160 3161 3162 3162 3163 3164 3164 3165 3165 3166 3167 3167 3168 3169 3170 3171 3171
3132 3132 3131 3131 3130 3130 3129 3129 3128 3128 3128 3127 3127 3127 3126 3126 3125 3125 3125 3125 3126 3126 3126 3126 3126 3127 3127 3127 3128 3128 3128 3129 3129 3129 3130 3130 3130 3130 3130 3130 3131 3131 3131 3132 3133 3134 3134 3134 3134 3134 3134 3135 3135 3136 3136 3137 3138 3138 3139 3139 3140 3140 3141 3141 3142 3142 3143 3144 3145 3146 3146 3147 3147 3148 3149 3150 3151 3151 3151 3152 3153 3154 3155 3156 3156 3157 3158 3159 3160 3161 3162 3162 3163 3163 3164 3165 3165 3166 3167 3168 3168 3169 3170
3129 3128 3127 3127 3126 3126 3126 3125 3125 3124 3124 3124 3124 3123 3123 3122 3122 3121 3121 3121 3122 3122 3122 3122 3123 3123 3123 3124 3124 3125 3125 3125 3126 3126 3126 3126 3127 3127 3127 3127 3127 3128 3129 3130 3131 3131 3131 3131 3131 3131 3132 3132 3133 3134 3135 3135 3136 3136 3137 3137 3138 3138 3139 3139 3140 3141 3141 3142 3142 3143 3144 3145 3146 3146 3147 3148 3149 3150 3150 3151 3151 3152 3153 3154 3155 3156 3157 3158 3158 3159 3160 3161 3161 3162 3163 3163 3164 3165 3166 3166 3167 3168 3168
3126 3125 3124 3123 3122 3122 3122 3121 3121 3121 3120 3120 3120 3120 3119 3119 3118 3118 3118 3118 3118 3118 3118 3118 3118 3119 3119 3120 3120 3121 3121 3121 3122 3123 3123 3123 3124 3124 3124 3123 3124 3125 3126 3127 3127 3128 3128 3129 3129 3129 3130 3131 3131 3132 3133 3133 3134 3134 3135 3135 3136 3136 3137 3137 3138 3138 3139 3140 3141 3141 3142 3143 3144 3145 3146 3147 3147 3148 3148 3149 3150 3150 3151 3152 3154 3155 3156 3156 3157 3157 3158 3159 3160 3161 3161 3162 3163 3163 3164 3165 3166 3166 3167
3123 3122 3121 3120 3119 3119 3118 3117 3117 3116 3116 3116 3116 3116 3115 3115 3115 3115 3114 3114 3114 3114 3114 3114 3114 3115 3115 3116 3116 3117 3117 3118 3119 3119 3120 3120 3120 3120 3120 3120 3121 3121 3123 3124 3125 3125 3125 3126 3126 3127 3127 3128 3129 3130 3130 3131 3132 3132 3132 3133 3134 3134 3135 3135 3136 3136 3137 3138 3138 3139 3140 3141 3142 3143 3146 3146 3146 3146 3146 3147 3148 3149 3150 3151 3151 3152 3154 3155 3155 3155 3156 3157 3158 3159 3160 3161 3162 3163 3163 3163 3164 3165 3166
3120 3119 3118 3117 3116 3116 3115 3114 3113 3113 3112 3112 3112 3111 3111 3111 3111 3111 3111 3111 3110 3110 3110 3110 3110 3111 3111 3111 3112 3113 3113 3114 3115 3116 3116 3117 3117 3116 3116 3116 3117 3118 3119 3121 3121 3122 3122 3123 3123 3124 3125 3126 3127 3127 3128 3129 3130 3130 3130 3131 3131 3132 3132 3133 3134 3134 3135 3136 3136 3137 3138 3139 3140 3141 3143 3144 3145 3145 3145 3145 3146 3147 3148 3149 3150 3150 3151 3152 3153 3154 3155 3156 3156 3157 3158 3159 3160 3161 3162 3162 3162 3164 3164
3117 3116 3116 3115 3114 3113 3112 3111 3110 3110 3109 3108 3108 3107 3107 3107 3107 3107 3107 3106 3106 3106 3106 3106 3106 3106 3106 3107 3108 3109 3110 3111 3112 3112 3113 3113 3113 3113 3113 3113 3114 3115 3116 3117 3118 3119 3119 3120 3121 3121 3122 3123 3124 3125 3126 3126 3127 3127 3128 3129 3129 3130 3130 3131 3131 3132 3133 3134 3134 3135 3137 3138 3138 3139 3141 3142 3142 3143 3143 3143 3145 3146 3146 3147 3147 3148 3149 3150 3151 3152 3153 3154 3155 3156 3157 3157 3158 3159 3160 3160 3161 3162 3163
3115 3114 3113 3112 3111 3110 3109 3108 3107 3106 3106 3105 3104 3103 3103 3103 3103 3103 3102 3102 3102 3102 3102 3102 3102 3102 3102 3103 3103 3104 3105 3106 3108 3108 3109 3109 3109 3109 3109 3110 3111 3112 3113 3114 3115 3115 3116 3117 3118 3119 3119 3120 3121 3122 3122 3123 3124 3125 3126 3126 3127 3127 3128 3128 3129 3130 3131 3131 3132 3133 3135 3136 3137 3138 3139 3140 3140 3140 3140 3141 3142 3144 3144 3145 3145 3146 3147 3147 3148 3150 3151 3152 3153 3154 3155 3156 3157 3157 3158 3159 3160 3161 3161
3112 3111 3110 3109 3108 3107 3106 3105 3104 3104 3103 3102 3101 3100 3100 3099 3099 3099 3098 3098 3098 3098 3098 3098 3098 3098 3099 3099 3099 3100 3101 3102 3103 3104 3104 3105 3105 3105 3106 3106 3107 3108 3109 3110 3111 3112 3113 3114 3115 3116 3116 3117 3118 3119 3119 3120 3121 3122 3123 3124 3124 3125 3125 3126 3127 3127 3128 3129 3130 3131 3132 3134 3135 3136 3136 3137 3138 3138 3139 3139 3139 3141 3141 3142 3143 3144 3145 3146 3146 3148 3149 3151 3152 3152 3153 3154 3155 3156 3157 3157 3158 3159 3160
3109 3108 3107 3106 3105 3104 3103 3102 3101 3101 3100 3099 3098 3097 3096 3096 3095 3095 3094 3094 3094 3094 3094 3094 3094 3095 3095 3095 3095 3096 3097 3098 3099 3099 3100 3100 3101 3101 3102 3102 3103 3105 3106 3106 3107 3109 3110 3111 3111 3112 3113 3114 3115 3116 3116 3117 3118 3119 3120 3121 3122 3122 3123 3123 3124 3125 3126 3127 3128 3129 3130 3131 3132 3133 3134 3135 3135 3136 3136 3136 3137 3138 3139 3140 3141 3142 3142 3143 3145 3146 3147 3148 3150 3151 3151 3152 3153 3154 3156 3156 3156 3157 3158
3105 3105 3104 3103 3102 3101 3100 3099 3098 3098 3097 3096 3095 3094 3093 3093 3092 3091 3091 3090 3090 3090 3090 3090 3090 3090 3091 3091 3091 3092 3093 3093 3094 3095 3095 3096 3096 3097 3098 3099 3100 3101 3102 3103 3104 3105 3106 3107 3108 3109 3110 3111 3111 3112 3113 3114 3115 3116 3117 3118 3119 3120 3121 3121 3121 3122 3123 3124 3125 3126 3127 3128 3130 3131 3131 3132 3132 3133 3134 3134 3135 3136 3138 3138 3139 3140 3141 3141 3142 3144 3145 3146 3147 3149 3150 3151 3151 3152 3154 3154 3155 3155 3156
3102 3101 3100 3100 3099 3098 3097 3096 3096 3095 3094 3093 3092 3091 3090 3090 3089 3088 3087 3087 3086 3086 3086 3086 3086 3086 3086 3086 3087 3088 3088 3089 3089 3090 3091 3091 3092 3093 3093 3094 3096 3096 3098 3099 3100 3101 3102 3103 3104 3105 3106 3107 3108 3109 3110 3111 3112 3113 3114 3115 3115 3116 3118 3119 3119 3119 3120 3121 3122 3123 3124 3126 3127 3128 3129 3129 3129 3130 3131 3132 3133 3134 3135 3136 3136 3137 3138 3139 3140 3141 3142 3144 3145 3146 3148 3149 3150 3151 3152 3153 3153 3153 3154
3099 3098 3097 3096 3096 3095 3094 3093 3092 3091 3091 3090 3089 3088 3087 3087 3086 3085 3084 3084 3083 3082 3082 3081 3081 3082 3082 3082 3083 3083 3084 3085 3085 3086 3086 3087 3088 3088 3089 3090 3091 3092 3093 3095 3096 3097 3098 3099 3100 3101 3102 3103 3104 3105 3106 3107 3108 3109 3110 3111 3112 3112 3113 3114 3115 3116 3117 3118 3119 3120 3121 3123 3124 3126 3126 3127 3127 3128 3128 3130 3131 3131 3134 3135 3135 3136 3136 3137 3138 3139 3140 3141 3143 3144 3145 3146 3148 3149 3150 3151 3151 3152 3152
3096 3095 3094 3093 3092 3091 3091 3090 3089 3088 3087 3087 3086 3085 3085 3084 3083 3081 3081 3080 3080 3079 3079 3078 3078 3077 3077 3078 3078 3079 3080 3080 3081 3081 3082 3082 3083 3084 3085 3086 3086 3088 3089 3090 3091 3093 3094 3095 3096 3097 3098 3099 3101 3102 3103 3104 3105 3106 3107 3108 3109 3109 3110 3110 3111 3112 3113 3115 3116 3117 3119 3120 3121 3123 3123 3124 3125 3126 3126 3128 3129 3130 3131 3132 3133 3133 3134 3135 3136 3137 3138 3139 3140 3142 3143 3144 3145 3146 3147 3149 3149 3150 3151
3094 3092 3091 3090 3089 3088 3087 3086 3086 3085 3084 3083 3082 3082 3081 3081 3080 3079 3078 3077 3076 3076 3075 3075 3074 3074 3073 3073 3074 3075 3075 3076 3076 3077 3077 3078 3079 3079 3080 3081 3082 3083 3085 3086 3087 3089 3090 3091 3092 3093 3094 3096 3097 3098 3099 3100 3101 3102 3104 3105 3105 3106 3107 3108 3109 3110 3111 3112 3113 3114 3116 3117 3119 3120 3121 3121 3122 3123 3124 3125 3126 3128 3129 3129 3129 3131 3132 3133 3134 3135 3136 3137 3138 3140 3141 3142 3143 3144 3145 3146 3147 3148 3149
3091 3089 3088 3087 3086 3085 3084 3083 3082 3081 3080 3080 3079 3079 3078 3077 3076 3076 3075 3074 3073 3072 3071 3071 3071 3070 3070 3070 3070 3070 3071 3071 3072 3073 3073 3074 3074 3075 3076 3076 3077 3079 3080 3081 3083 3084 3086 3087 3088 3089 3091 3092 3093 3094 3095 3096 3098 3099 3100 3101 3102 3103 3104 3105 3106 3107 3108 3110 3111 3112 3113 3115 3116 3118 3119 3119 3120 3121 3121 3123 3124 3125 3126 3127 3127 3128 3130 3131 3131 3132 3134 3135 3136 3137 3138 3140 3141 3142 3143 3144 3146 3146 3147
3088 3086 3085 3084 3082 3081 3081 3080 3079 3078 3077 3076 3076 3075 3074 3074 3073 3072 3072 3071 3070 3069 3068 3067 3067 3067 3066 3066 3066 3066 3066 3066 3067 3068 3069 3070 3070 3071 3071 3072 3073 3074 3075 3076 3078 3080 3081 3082 3084 3085 3086 3088 3089 3090 3091 3093 3094 3096 3096 3097 3098 3099 3100 3101 3102 3104 3106 3107 3108 3110 3111 3112 3114 3115 3116 3117 3118 3119 3119 3121 3121 3121 3122 3124 3125 3126 3127 3128 3129 3130 3131 3132 3134 3135 3136 3137 3138 3139 3141 3142 3143 3145 3146
3086 3084 3082 3081 3080 3078 3077 3076 3075 3074 3073 3072 3072 3071 3071 3070 3070 3069 3069 3068 3067 3066 3065 3064 3064 3063 3063 3062 3062 3061 3061 3061 3062 3063 3064 3065 3066 3066 3067 3068 3068 3069 3071 3072 3073 3075 3076 3078 3079 3081 3082 3083 3085 3086 3087 3089 3091 3092 3093 3094 3095 3096 3097 3098 3099 3101 3103 3104 3106 3106 3107 3109 3110 3111 3113 3114 3115 3116 3116 3117 3118 3119 3120 3121 3122 3124 3125 3126 3126 3127 3129 3130 3131 3132 3133 3135 3136 3137 3138 3139 3141 3142 3144
3083 3082 3080 3079 3077 3076 3075 3073 3072 3071 3070 3069 3068 3068 3067 3067 3066 3066 3065 3065 3064 3063 3062 3061 3060 3060 3059 3059 3058 3058 3058 3057 3058 3058 3059 3061 3061 3062 3063 3063 3064 3065 3066 3067 3069 3070 3072 3073 3075 3076 3077 3079 3081 3082 3084 3085 3087 3088 3089 3090 3091 3092 3093 3095 3096 3098 3099 3101 3102 3103 3104 3105 3106 3108 3110 3111 3112 3113 3114 3115 3116 3117 3117 3118 3120 3121 3122 3123 3124 3126 3127 3127 3129 3130 3131 3132 3134 3135 3136 3137 3138 3139 3141
3080 3079 3078 3077 3075 3074 3072 3071 3070 3068 3067 3066 3065 3065 3064 3063 3063 3062 3062 3061 3061 3060 3059 3058 3057 3056 3056 3055 3055 3055 3054 3054 3054 3054 3054 3056 3057 3058 3058 3059 3060 3061 3061 3062 3064 3066 3067 3069 3070 3071 3073 3075 3076 3078 3080 3081 3083 3084 3085 3086 3087 3089 3090 3091 3093 3094 3095 3097 3098 3100 3101 3102 3103 3104 3106 3107 3109 3110 3111 3112 3113 3114 3115 3116 3117 3118 3119 3120 3122 3123 3124 3125 3126 3127 3128 3130 3131 3132 3134 3135 3136 3137 3139
3077 3076 3075 3074 3073 3071 3070 3069 3067 3066 3065 3063 3062 3061 3061 3060 3060 3059 3058 3058 3057 3056 3056 3055 3054 3053 3053 3052 3051 3051 3051 3050 3050 3050 3050 3051 3051 3053 3054 3055 3056 3056 3057 3058 3059 3061 3062 3064 3065 3067 3069 3070 3072 3074 3075 3077 3079 3080 3081 3082 3084 3085 3086 3088 3089 3090 3091 3093 3095 3096 3098 3099 3101 3101 3102 3103 3105 3107 3108 3109 3110 3111 3113 3114 3115 3116 3116 3117 3119 3120 3121 3122 3123 3125 3126 3127 3128 3130 3131 3132 3134 3135 3136
3075 3073 3072 3071 3070 3069 3067 3066 3065 3063 3062 3061 3059 3058 3057 3056 3056 3056 3055 3054 3054 3053 3053 3052 3051 3050 3050 3049 3048 3048 3047 3047 3047 3047 3046 3046 3047 3048 3049 3050 3051 3052 3053 3054 3055 3056 3057 3059 3061 3062 3064 3066 3067 3069 3071 3073 3075 3076 3077 3078 3080 3081 3083 3084 3085 3086 3088 3090 3091 3093 3094 3096 3097 3098 3100 3101 3101 3103 3105 3106 3107 3108 3110 3111 3112 3113 3114 3115 3116 3117 3119 3120 3121 3122 3123 3124 3126 3127 3129 3130 3131 3133 3134
3072 3071 3070 3068 3067 3066 3065 3063 3062 3061 3059 3058 3056 3055 3054 3053 3052 3052 3051 3051 3050 3050 3049 3049 3048 3047 3047 3046 3046 3045 3044 3044 3044 3043 3043 3043 3043 3044 3044 3046 3047 3048 3049 3050 3051 3052 3053 3055 3056 3058 3059 3061 3063 3065 3066 3069 3070 3071 3073 3074 3076 3077 3079 3080 3081 3083 3084 3086 3088 3089 3091 3092 3094 3095 3096 3098 3099 3100 3102 3103 3105 3106 3107 3108 3109 3110 3111 3112 3114 3115 3116 3117 3118 3120 3121 3122 3123 3125 3126 3128 3130 3131 3132
3070 3069 3067 3066 3065 3063 3062 3061 3059 3058 3056 3055 3054 3053 3051 3050 3049 3049 3048 3047 3047 3046 3046 3046 3045 3044 3044 3043 3043 3042 3041 3041 3040 3040 3040 3040 3040 3040 3040 3041 3042 3043 3045 3046 3047 3048 3049 3050 3051 3053 3055 3056 3058 3060 3062 3064 3066 3067 3069 3070 3072 3073 3075 3076 3078 3080 3081 3082 3084 3086 3087 3089 3090 3092 3093 3095 3096 3097 3098 3100 3101 3102 3104 3105 3106 3107 3108 3110 3111 3112 3113 3115 3116 3117 3119 3120 3121 3122 3123 3125 3127 3128 3130
3068 3067 3065 3064 3062 3061 3059 3058 3057 3056 3054 3052 3051 3050 3049 3047 3046 3046 3045 3044 3043 3043 3042 3042 3041 3041 3041 3041 3040 3039 3038 3038 3037 3037 3036 3036 3036 3036 3037 3037 3038 3039 3040 3041 3042 3043 3045 3046 3047 3048 3050 3052 3053 3056 3057 3060 3061 3063 3065 3066 3067 3069 3071 3072 3074 3076 3077 3079 3081 3082 3084 3085 3087 3088 3090 3091 3093 3095 3096 3097 3098 3100 3101 3101 3103 3105 3106 3107 3108 3109 3111 3112 3113 3115 3116 3117 3119 3120 3121 3122 3124 3125 3127
3066 3065 3063 3061 3060 3059 3057 3056 3055 3053 3051 3050 3049 3048 3046 3045 3044 3043 3042 3041 3040 3040 3039 3039 3038 3038 3037 3037 3036 3036 3036 3035 3034 3034 3034 3033 3033 3033 3033 3033 3034 3034 3036 3037 3038 3039 3041 3041 3042 3044 3045 3047 3049 3051 3053 3055 3057 3059 3060 3061 3063 3065 3066 3068 3070 3072 3074 3075 3077 3078 3080 3081 3083 3085 3086 3088 3090 3091 3092 3094 3095 3096 3097 3099 3100 3101 3103 3104 3105 3106 3108 3109 3111 3112 3113 3115 3116 3117 3119 3120 3121 3123 3124
3064 3062 3061 3059 3058 3057 3055 3054 3052 3051 3049 3048 3046 3045 3044 3042 3041 3041 3040 3038 3037 3037 3036 3036 3035 3034 3034 3034 3033 3033 3032 3032 3031 3031 3031 3031 3030 3030 3030 3030 3030 3031 3031 3032 3034 3035 3036 3037 3038 3039 3041 3042 3044 3046 3048 3050 3052 3054 3056 3057 3059 3061 3062 3064 3066 3068 3070 3071 3073 3074 3076 3078 3080 3081 3083 3085 3086 3088 3090 3091 3092 3093 3094 3096 3097 3098 3100 3101 3102 3103 3105 3106 3108 3109 3111 3112 3113 3114 3116 3117 3119 3120 3121
3061 3060 3058 3057 3056 3054 3053 3051 3050 3049 3047 3046 3044 3043 3041 3040 3039 3038 3037 3036 3035 3034 3033 3032 3032 3031 3031 3030 3030 3030 3029 3029 3028 3028 3028 3027 3027 3027 3027 3027 3027 3027 3027 3028 3030 3031 3032 3033 3034 3035 3036 3038 3040 3041 3043 3046 3048 3050 3051 3053 3055 3057 3058 3060 3062 3064 3066 3067 3069 3070 3072 3074 3076 3078 3079 3081 3083 3085 3086 3088 3089 3091 3091 3093 3094 3095 3096 3098 3099 3101 3102 3103 3105 3106 3108 3109 3110 3111 3113 3114 3116 3118 3119
3058 3057 3056 3054 3053 3051 3050 3049 3047 3046 3045 3043 3042 3040 3039 3038 3036 3036 3035 3033 3032 3031 3031 3030 3029 3028 3028 3027 3027 3026 3026 3026 3025 3025 3025 3024 3024 3024 3024 3024 3024 3024 3024 3024 3026 3027 3028 3029 3030 3031 3032 3034 3035 3037 3039 3041 3043 3045 3047 3049 3051 3052 3054 3056 3058 3060 3061 3063 3065 3066 3068 3070 3072 3074 3076 3078 3079 3081 3082 3084 3086 3087 3088 3090 3091 3092 3094 3095 3096 3097 3099 3101 3102 3103 3105 3106 3107 3109 3110 3112 3113 3115 3117
3055 3054 3053 3051 3049 3048 3047 3046 3045 3043 3042 3041 3039 3037 3036 3035 3034 3033 3031 3031 3030 3029 3028 3027 3026 3026 3025 3024 3024 3023 3023 3022 3022 3022 3021 3021 3021 3021 3021 3021 3020 3020 3021 3021 3021 3022 3024 3025 3026 3027 3028 3029 3031 3032 3034 3036 3039 3041 3043 3045 3046 3048 3050 3052 3054 3056 3057 3059 3061 3063 3065 3066 3069 3071 3072 3074 3076 3077 3079 3080 3081 3083 3085 3086 3088 3089 3091 3092 3093 3094 3096 3097 3099 3101 3102 3103 3105 3106 3108 3109 3111 3112 3114
3052 3051 3050 3048 3046 3045 3044 3043 3041 3040 3039 3038 3036 3035 3033 3032 3031 3030 3029 3028 3027 3026 3025 3024 3024 3023 3022 3021 3021 3020 3019 3019 3019 3019 3018 3018 3018 3017 3017 3017 3017 3017 3017 3017 3018 3019 3020 3021 3022 3023 3024 3025 3026 3028 3030 3032 3034 3036 3038 3040 3042 3044 3046 3047 3049 3051 3054 3055 3057 3059 3061 3063 3065 3067 3069 3070 3071 3073 3075 3076 3079 3081 3082 3084 3085 3086 3088 3089 3090 3092 3093 3094 3096 3097 3099 3101 3102 3104 3105 3106 3108 3109 3111
3050 3048 3047 3045 3044 3042 3041 3040 3038 3037 3036 3035 3034 3032 3030 3030 3029 3027 3026 3026 3025 3023 3022 3021 3021 3020 3019 3019 3018 3017 3016 3016 3016 3016 3015 3015 3015 3014 3014 3014 3014 3014 3014 3014 3015 3015 3016 3017 3018 3019 3020 3021 3022 3024 3025 3027 3030 3032 3034 3036 3038 3040 3041 3043 3045 3047 3049 3051 3053 3055 3056 3059 3061 3063 3065 3066 3068 3070 3071 3074 3076 3078 3080 3081 3082 3083 3085 3086 3088 3089 3090 3091 3093 3095 3096 3097 3099 3101 3103 3104 3105 3106 3108
3047 3045 3044 3042 3041 3039 3038 3037 3036 3034 3033 3032 3031 3029 3027 3027 3026 3025 3023 3023 3022 3021 3020 3019 3018 3017 3016 3016 3015 3014 3014 3013 3013 3012 3012 3012 3011 3011 3011 3011 3011 3011 3011 3011 3011 3012 3012 3013 3014 3016 3016 3017 3018 3019 3021 3023 3025 3027 3030 3032 3034 3035 3037 3039 3041 3043 3045 3047 3049 3051 3053 3055 3056 3058 3061 3063 3065 3066 3069 3071 3073 3074 3076 3077 3079 3081 3082 3084 3085 3087 3088 3089 3091 3092 3093 3094 3096 3098 3100 3101 3102 3104 3105
3044 3042 3041 3040 3038 3036 3035 3034 3032 3031 3030 3029 3027 3026 3025 3024 3023 3022 3021 3020 3019 3018 3017 3016 3015 3014 3013 3013 3012 3011 3011 3010 3010 3009 3009 3009 3008 3008 3007 3007 3007 3007 3008 3008 3009 3008 3009 3010 3011 3011 3012 3013 3014 3015 3017 3018 3021 3023 3025 3027 3029 3031 3033 3035 3037 3039 3041 3043 3045 3046 3048 3050 3052 3054 3057 3059 3061 3063 3065 3067 3069 3071 3073 3075 3077 3079 3080 3081 3083 3085 3086 3087 3088 3089 3090 3091 3093 3095 3096 3097 3099 3100 3102
3041 3040 3038 3037 3035 3034 3032 3031 3030 3028 3027 3026 3025 3023 3022 3021 3020 3019 3018 3017 3016 3016 3015 3014 3013 3012 3011 3010 3010 3009 3008 3008 3007 3006 3006 3006 3006 3005 3004 3004 3004 3004 3005 3005 3006 3005 3006 3006 3007 3008 3009 3010 3011 3011 3013 3014 3016 3018 3021 3023 3025 3027 3029 3031 3032 3035 3037 3039 3041 3042 3044 3046 3048 3051 3053 3055 3057 3060 3061 3063 3065 3067 3070 3072 3074 3076 3077 3079 3080 3081 3083 3084 3085 3086 3087 3089 3090 3092 3093 3094 3096 3097 3099
3039 3037 3036 3034 3033 3031 3030 3028 3027 3026 3025 3023 3022 3020 3019 3018 3017 3016 3015 3014 3014 3013 3012 3011 3011 3010 3009 3008 3007 3006 3006 3005 3005 3004 3004 3003 3002 3002 3001 3001 3001 3001 3001 3002 3002 3002 3003 3003 3004 3004 3005 3006 3007 3008 3009 3010 3012 3014 3016 3019 3021 3023 3025 3026 3028 3031 3032 3035 3037 3038 3040 3042 3044 3047 3049 3051 3054 3056 3058 3060 3062 3064 3066 3069 3071 3073 3075 3076 3077 3079 3080 3081 3082 3083 3084 3085 3087 3088 3090 3091 3092 3094 3096
3036 3035 3033 3031 3030 3029 3027 3026 3025 3023 3022 3020 3019 3018 3016 3015 3014 3013 3012 3011 3011 3010 3009 3009 3008 3007 3006 3005 3005 3004 3003 3002 3002 3001 3001 3001 3000 3000 2999 2998 2998 2998 2998 2999 2999 2999 3000 3000 3000 3001 3002 3002 3003 3004 3005 3006 3008 3010 3012 3014 3016 3019 3021 3022 3024 3026 3028 3030 3032 3034 3037 3038 3040 3043 3045 3047 3050 3052 3054 3056 3058 3060 3063 3065 3067 3069 3071 3073 3075 3076 3077 3079 3080 3080 3080 3081 3082 3083 3085 3086 3088 3090 3092
3034 3032 3031 3029 3027 3026 3024 3023 3022 3021 3019 3017 3016 3015 3013 3012 3011 3010 3009 3008 3007 3006 3006 3006 3005 3004 3003 3003 3002 3001 3000 3000 2999 2999 2998 2998 2998 2997 2997 2996 2995 2995 2995 2995 2995 2996 2997 2997 2997 2997 2998 2999 3000 3001 3002 3003 3004 3006 3008 3010 3012 3014 3016 3018 3020 3022 3024 3026 3028 3031 3033 3034 3036 3039 3041 3044 3046 3048 3050 3052 3055 3057 3059 3061 3063 3066 3068 3070 3072 3074 3075 3076 3077 3078 3077 3077 3077 3078 3080 3081 3084 3086 3088
3031 3029 3027 3026 3025 3023 3022 3020 3019 3018 3016 3015 3013 3012 3011 3009 3008 3007 3006 3005 3004 3003 3003 3002 3001 3001 3001 3000 2999 2998 2997 2997 2996 2996 2995 2995 2995 2995 2994 2993 2993 2993 2992 2992 2992 2993 2993 2993 2993 2994 2995 2995 2996 2997 2998 3000 3001 3002 3004 3006 3008 3010 3012 3014 3016 3018 3020 3022 3024 3026 3028 3030 3032 3035 3037 3040 3042 3044 3046 3049 3051 3053 3055 3057 3060 3062 3064 3066 3069 3071 3072 3073 3074 3075 3076 3075 3074 3074 3075 3077 3080 3082 3084
3028 3026 3025 3023 3022 3021 3019 3017 3016 3015 3013 3012 3010 3009 3008 3006 3005 3004 3003 3002 3001 3000 3000 2999 2998 2998 2997 2997 2996 2996 2995 2994 2994 2993 2992 2992 2992 2991 2991 2991 2991 2990 2990 2989 2989 2990 2990 2989 2990 2990 2991 2991 2992 2993 2995 2996 2997 2998 3000 3002 3004 3006 3008 3010 3011 3013 3016 3018 3019 3021 3023 3026 3028 3031 3033 3036 3038 3040 3043 3045 3047 3050 3052 3054 3056 3058 3061 3063 3066 3068 3069 3070 3070 3071 3073 3073 3072 3071 3072 3074 3076 3078 3080
3026 3024 3022 3021 3019 3017 3016 3015 3013 3012 3010 3009 3007 3006 3005 3003 3002 3001 3000 2999 2998 2997 2996 2996 2995 2994 2994 2994 2993 2992 2992 2991 2991 2990 2989 2989 2989 2989 2988 2988 2988 2988 2987 2987 2987 2986 2986 2986 2986 2987 2987 2988 2988 2990 2991 2993 2994 2995 2996 2998 3000 3002 3004 3006 3007 3009 3011 3013 3015 3017 3019 3021 3024 3027 3029 3032 3034 3036 3039 3041 3044 3046 3048 3050 3053 3055 3057 3059 3062 3064 3066 3067 3067 3068 3070 3071 3071 3070 3069 3070 3072 3075 3076
3023 3021 3019 3018 3016 3015 3013 3011 3010 3009 3007 3006 3004 3003 3002 3001 2999 2998 2997 2996 2995 2994 2994 2993 2992 2991 2990 2990 2990 2989 2988 2988 2988 2987 2986 2986 2986 2986 2986 2986 2986 2985 2985 2984 2984 2984 2983 2983 2983 2983 2984 2984 2985 2987 2988 2989 2990 2991 2992 2994 2996 2998 3000 3001 3003 3005 3007 3009 3011 3013 3014 3017 3020 3023 3026 3028 3031 3033 3035 3038 3040 3042 3045 3047 3049 3051 3053 3056 3059 3061 3063 3063 3064 3065 3067 3069 3070 3068 3066 3066 3069 3072 3073
3020 3018 3016 3015 3013 3012 3010 3009 3007 3006 3004 3003 3001 3000 2999 2997 2996 2995 2994 2993 2992 2991 2991 2990 2989 2988 2987 2986 2986 2986 2985 2985 2984 2984 2983 2983 2983 2983 2983 2983 2983 2982 2982 2982 2981 2981 2980 2980 2980 2980 2980 2981 2982 2983 2984 2985 2986 2988 2989 2991 2992 2994 2996 2998 2999 3001 3003 3005 3007 3009 3010 3013 3016 3019 3022 3024 3027 3029 3032 3034 3036 3039 3041 3043 3046 3048 3050 3052 3055 3057 3059 3060 3061 3061 3063 3066 3067 3067 3065 3064 3065 3067 3069
3017 3016 3014 3012 3011 3009 3007 3006 3004 3003 3001 3000 2999 2997 2996 2995 2993 2992 2991 2990 2989 2988 2987 2987 2986 2985 2984 2983 2982 2982 2981 2981 2981 2981 2980 2980 2980 2980 2980 2980 2980 2980 2980 2980 2979 2978 2977 2977 2977 2977 2977 2978 2979 2980 2980 2981 2983 2984 2985 2986 2988 2990 2992 2994 2995 2997 2999 3001 3003 3006 3007 3009 3012 3015 3018 3021 3023 3026 3028 3031 3033 3035 3038 3040 3042 3044 3046 3049 3051 3053 3055 3056 3057 3059 3061 3061 3063 3064 3065 3064 3063 3064 3066
3015 3013 3011 3010 3008 3006 3005 3003 3002 3000 2999 2997 2996 2995 2993 2992 2991 2989 2988 2987 2986 2985 2984 2984 2983 2982 2981 2980 2979 2979 2978 2977 2977 2977 2977 2977 2977 2977 2977 2977 2977 2977 2977 2977 2977 2976 2975 2974 2974 2974 2974 2975 2976 2976 2977 2978 2979 2980 2981 2983 2985 2986 2988 2990 2991 2993 2996 2997 3000 3002 3004 3006 3008 3011 3014 3017 3019 3022 3025 3027 3029 3032 3034 3036 3038 3040 3042 3045 3047 3050 3052 3053 3055 3056 3057 3058 3058 3060 3062 3064 3064 3063 3063
3012 3010 3009 3007 3005 3004 3002 3001 2999 2997 2996 2995 2993 2992 2991 2989 2988 2986 2985 2984 2983 2982 2981 2981 2980 2980 2978 2977 2976 2976 2975 2974 2974 2973 2973 2973 2973 2973 2974 2974 2974 2974 2974 2975 2974 2974 2973 2972 2971 2971 2971 2972 2972 2973 2973 2975 2975 2976 2978 2980 2981 2983 2984 2986 2988 2990 2992 2993 2995 2998 3000 3002 3005 3007 3010 3013 3016 3019 3021 3023 3026 3028 3030 3033 3035 3036 3039 3041 3044 3046 3049 3050 3051 3053 3054 3054 3055 3056 3057 3060 3062 3063 3062
3009 3008 3006 3004 3003 3001 3000 2998 2996 2995 2993 2992 2991 2990 2988 2986 2985 2984 2983 2981 2981 2980 2979 2978 2977 2976 2976 2975 2974 2973 2972 2971 2970 2970 2970 2970 2970 2970 2970 2971 2971 2971 2971 2971 2971 2971 2971 2970 2969 2969 2969 2969 2969 2970 2970 2971 2971 2973 2975 2976 2977 2979 2981 2982 2984 2986 2988 2989 2991 2993 2996 2998 3001 3003 3006 3009 3012 3015 3017 3020 3022 3025 3027 3029 3031 3033 3036 3038 3041 3043 3045 3046 3048 3049 3050 3051 3051 3053 3054 3056 3059 3061 3061
3007 3005 3004 3002 3000 2999 2997 2996 2994 2992 2991 2990 2988 2987 2986 2984 2982 2981 2980 2979 2978 2977 2976 2975 2974 2973 2973 2972 2971 2970 2969 2968 2967 2966 2966 2966 2966 2966 2967 2967 2968 2968 2969 2969 2969 2969 2968 2967 2967 2966 2966 2966 2966 2966 2966 2967 2968 2970 2972 2973 2974 2976 2978 2979 2981 2982 2984 2985 2987 2989 2992 2994 2997 2999 3002 3005 3008 3011 3014 3017 3019 3022 3024 3026 3028 3030 3032 3035 3037 3039 3041 3043 3044 3045 3046 3046 3048 3050 3052 3053 3055 3057 3060
3005 3003 3001 3000 2998 2996 2995 2993 2991 2990 2988 2987 2986 2984 2983 2981 2980 2978 2977 2976 2975 2974 2973 2972 2971 2970 2970 2969 2969 2968 2967 2965 2964 2963 2963 2962 2962 2963 2963 2964 2964 2965 2965 2966 2966 2966 2966 2965 2964 2964 2964 2964 2964 2963 2963 2964 2966 2967 2968 2969 2971 2973 2974 2975 2977 2978 2979 2981 2983 2985 2987 2990 2993 2995 2997 3000 3003 3007 3010 3013 3016 3019 3021 3023 3025 3026 3029 3031 3033 3035 3037 3039 3040 3041 3042 3044 3046 3048 3049 3051 3053 3055 3057
3002 3000 2999 2997 2995 2994 2992 2991 2989 2987 2986 2985 2983 2982 2980 2979 2977 2976 2975 2973 2972 2971 2971 2970 2969 2968 2967 2966 2966 2965 2964 2963 2961 2961 2960 2959 2958 2958 2959 2960 2961 2962 2962 2963 2963 2963 2963 2962 2962 2962 2962 2961 2961 2961 2961 2961 2962 2963 2965 2966 2968 2970 2971 2971 2973 2974 2976 2978 2980 2981 2983 2986 2989 2991 2993 2996 2999 3003 3006 3009 3012 3015 3017 3019 3021 3023 3025 3027 3029 3031 3033 3035 3037 3039 3041 3042 3044 3046 3047 3049 3051 3053 3056
3000 2998 2996 2995 2993 2991 2990 2988 2986 2985 2984 2982 2981 2980 2978 2976 2975 2974 2972 2971 2970 2969 2968 2967 2966 2966 2965 2963 2963 2962 2962 2960 2959 2958 2957 2956 2956 2956 2955 2955 2956 2958 2960 2960 2961 2960 2960 2960 2960 2960 2960 2959 2958 2958 2958 2959 2959 2960 2961 2963 2965 2966 2967 2968 2970 2971 2972 2974 2976 2977 2980 2982 2985 2987 2989 2992 2995 2998 3001 3005 3008 3011 3013 3015 3016 3019 3021 3023 3025 3027 3029 3032 3035 3037 3039 3041 3042 3044 3046 3047 3050 3051 3054
2997 2995 2994 2992 2990 2989 2987 2986 2984 2982 2981 2980 2978 2977 2976 2974 2973 2971 2970 2969 2968 2966 2965 2964 2963 2963 2962 2961 2961 2960 2959 2958 2957 2956 2954 2953 2953 2953 2952 2952 2952 2953 2954 2956 2957 2958 2957 2957 2957 2957 2958 2957 2956 2956 2956 2956 2956 2957 2958 2960 2961 2962 2964 2965 2966 2967 2969 2971 2972 2974 2976 2978 2980 2982 2984 2987 2991 2994 2997 3001 3004 3006 3009 3011 3012 3015 3018 3020 3022 3024 3027 3030 3032 3034 3036 3038 3041 3042 3044 3046 3047 3050 3052
2995 2993 2991 2989 2988 2986 2985 2983 2981 2980 2978 2977 2976 2975 2973 2972 2971 2969 2968 2966 2965 2964 2963 2962 2961 2960 2960 2959 2958 2958 2957 2956 2955 2953 2952 2951 2951 2951 2950 2950 2949 2948 2949 2951 2953 2954 2955 2955 2955 2955 2956 2955 2954 2953 2953 2953 2954 2954 2955 2957 2958 2959 2960 2961 2963 2964 2966 2967 2969 2971 2972 2974 2976 2978 2979 2982 2986 2989 2992 2996 3000 3003 3005 3007 3009 3011 3014 3016 3018 3021 3024 3026 3029 3031 3034 3036 3038 3040 3041 3043 3045 3047 3050
2992 2991 2989 2987 2985 2984 2982 2980 2979 2977 2976 2974 2973 2972 2971 2970 2968 2967 2966 2964 2963 2962 2961 2960 2958 2957 2956 2956 2956 2955 2955 2954 2953 2951 2950 2949 2948 2948 2947 2947 2947 2946 2947 2948 2948 2949 2951 2951 2951 2952 2953 2953 2952 2951 2951 2951 2951 2951 2952 2954 2955 2956 2957 2958 2960 2961 2963 2965 2966 2967 2969 2971 2972 2974 2975 2978 2981 2985 2988 2991 2995 2998 3001 3003 3006 3008 3010 3012 3014 3016 3020 3022 3025 3028 3031 3033 3035 3037 3039 3041 3043 3045 3047
2990 2988 2986 2985 2983 2981 2979 2978 2976 2975 2973 2971 2970 2969 2968 2967 2966 2964 2963 2962 2961 2959 2958 2957 2956 2955 2954 2953 2953 2953 2952 2952 2951 2950 2948 2947 2946 2946 2945 2944 2944 2944 2945 2945 2945 2945 2946 2947 2948 2949 2950 2951 2950 2949 2949 2948 2948 2949 2950 2951 2951 2952 2954 2956 2957 2958 2960 2961 2962 2964 2966 2967 2969 2970 2971 2974 2976 2980 2984 2987 2990 2993 2997 3000 3002 3004 3005 3007 3010 3012 3015 3018 3021 3023 3026 3029 3031 3033 3036 3038 3040 3042 3044
2987 2986 2984 2982 2980 2979 2977 2975 2973 2972 2971 2969 2967 2966 2965 2964 2963 2961 2961 2959 2958 2957 2956 2955 2954 2952 2951 2951 2950 2950 2950 2949 2949 2948 2947 2946 2945 2944 2943 2942 2941 2941 2941 2941 2941 2942 2944 2944 2944 2945 2946 2947 2947 2947 2946 2946 2946 2946 2947 2948 2949 2950 2951 2952 2953 2955 2956 2957 2959 2961 2963 2964 2966 2967 2968 2970 2972 2975 2979 2982 2985 2988 2992 2996 2998 3000 3001 3003 3006 3009 3012 3014 3016 3019 3021 3024 3027 3030 3032 3035 3037 3039 3041
2984 2983 2981 2979 2978 2976 2974 2972 2971 2969 2968 2966 2965 2963 2962 2961 2960 2959 2958 2957 2956 2954 2953 2952 2951 2950 2949 2948 2947 2947 2947 2947 2946 2946 2945 2944 2943 2942 2941 2941 2940 2940 2939 2938 2938 2939 2941 2941 2941 2941 2941 2944 2945 2944 2943 2944 2944 2944 2945 2946 2946 2946 2947 2949 2950 2952 2953 2955 2957 2959 2960 2961 2963 2964 2966 2967 2969 2971 2974 2977 2980 2983 2988 2991 2994 2996 2997 2999 3002 3006 3009 3011 3013 3016 3018 3020 3023 3026 3028 3031 3033 3036 3038
2982 2980 2978 2976 2975 2973 2971 2970 2968 2966 2965 2963 2962 2961 2959 2958 2957 2956 2955 2954 2953 2952 2951 2950 2949 2948 2947 2946 2945 2945 2944 2944 2944 2944 2943 2942 2941 2941 2940 2939 2938 2938 2938 2937 2937 2937 2937 2938 2938 2937 2937 2940 2941 2941 2941 2941 2942 2943 2943 2943 2943 2944 2945 2946 2947 2949 2951 2952 2954 2956 2957 2958 2960 2961 2962 2965 2967 2968 2970 2972 2976 2978 2982 2986 2989 2991 2993 2996 2998 3001 3006 3009 3011 3012 3014 3017 3020 3022 3024 3026 3029 3032 3035
2979 2977 2975 2974 2972 2970 2968 2967 2965 2963 2962 2960 2959 2957 2956 2955 2954 2953 2952 2951 2950 2949 2948 2947 2946 2946 2945 2944 2943 2942 2942 2942 2941 2941 2941 2940 2940 2939 2938 2938 2937 2936 2936 2935 2935 2935 2935 2935 2935 2935 2936 2936 2937 2938 2940 2940 2940 2940 2941 2941 2941 2941 2942 2943 2944 2946 2947 2949 2951 2952 2954 2956 2957 2958 2959 2961 2964 2965 2966 2967 2970 2974 2977 2981 2985 2988 2990 2992 2994 2997 3001 3006 3008 3009 3011 3014 3017 3019 3022 3024 3027 3030 3032
2976 2974 2972 2971 2969 2967 2965 2964 2962 2960 2959 2957 2956 2954 2953 2952 2951 2950 2949 2948 2947 2946 2945 2944 2944 2943 2942 2941 2940 2940 2939 2939 2939 2938 2938 2938 2937 2937 2937 2936 2936 2935 2935 2934 2934 2933 2933 2933 2933 2933 2934 2933 2933 2934 2936 2938 2938 2938 2939 2939 2939 2939 2940 2940 2941 2943 2944 2946 2947 2949 2951 2952 2954 2955 2956 2958 2960 2961 2963 2963 2965 2968 2972 2976 2980 2984 2986 2988 2991 2994 2996 3001 3005 3007 3009 3011 3014 3016 3020 3022 3025 3027 3030
2974 2971 2969 2967 2966 2964 2962 2960 2959 2957 2956 2954 2952 2951 2950 2949 2948 2946 2946 2945 2944 2943 2942 2941 2941 2940 2939 2939 2938 2937 2937 2936 2936 2936 2935 2935 2935 2935 2935 2934 2934 2934 2934 2933 2932 2932 2931 2931 2931 2931 2931 2931 2931 2931 2932 2934 2936 2936 2937 2936 2936 2936 2937 2938 2939 2940 2941 2943 2945 2946 2948 2950 2951 2952 2953 2954 2955 2957 2958 2959 2961 2963 2967 2972 2976 2980 2983 2985 2988 2991 2992 2995 3000 3004 3007 3009 3011 3013 3016 3019 3022 3025 3028